N850CB KMHV-KSNA

Flight info

Callsign N850CB
Flight time 0h 33m
Altitude 16000
Route DCT PMD V201 BERRI/N0409F150 V459 SLI DCT
Aircraft C700/L-SDE2E3FGHUTRWXY/LB1

Departure

Time 2026-05-08 05:42
Airport Mojave Air & Space Port (KMHV)

Arrival

Time 2026-05-08 06:16
Airport John Wayne Orange County International Airport (KSNA)
Time Latitude Longitude Altitude Speed Heading
2026-05-08 05:26 35.05229 -118.14462 2743 ft 0 kts 127°
2026-05-08 05:26 35.05227 -118.14459 2743 ft 0 kts 126°
2026-05-08 05:38 35.05231 -118.14437 2743 ft 10 kts 57°
2026-05-08 05:38 35.05288 -118.14316 2743 ft 17 kts 105°
2026-05-08 05:38 35.05165 -118.14161 2743 ft 34 kts 135°
2026-05-08 05:38 35.04963 -118.13915 2741 ft 49 kts 135°
2026-05-08 05:39 35.04686 -118.13580 2737 ft 63 kts 136°
2026-05-08 05:39 35.04427 -118.13262 2734 ft 15 kts 116°
2026-05-08 05:39 35.04424 -118.13201 2734 ft 0 kts 60°
2026-05-08 05:41 35.04433 -118.13183 2736 ft 12 kts 54°
2026-05-08 05:42 35.04534 -118.13169 2738 ft 18 kts 315°
2026-05-08 05:42 35.04770 -118.13456 2737 ft 91 kts 315°
2026-05-08 05:42 35.05396 -118.14189 3187 ft 150 kts 315°
2026-05-08 05:42 35.06030 -118.15321 4142 ft 176 kts 281°
2026-05-08 05:43 35.05796 -118.16917 5210 ft 218 kts 246°
2026-05-08 05:43 35.04607 -118.18353 6014 ft 266 kts 212°
2026-05-08 05:43 35.02720 -118.18970 6851 ft 280 kts 179°
2026-05-08 05:43 35.00910 -118.18408 8012 ft 276 kts 154°
2026-05-08 05:44 34.99132 -118.17253 7620 ft 291 kts 153°
2026-05-08 05:44 34.97377 -118.16232 7390 ft 268 kts 156°
2026-05-08 05:44 34.95772 -118.15462 7687 ft 229 kts 161°
2026-05-08 05:44 34.94321 -118.14915 7718 ft 209 kts 171°
2026-05-08 05:45 34.92918 -118.14675 7570 ft 202 kts 174°
2026-05-08 05:45 34.91532 -118.14365 7223 ft 208 kts 168°
2026-05-08 05:45 34.90080 -118.13958 6963 ft 208 kts 168°
2026-05-08 05:45 34.88717 -118.13570 6960 ft 195 kts 168°
2026-05-08 05:46 34.87455 -118.13213 6956 ft 185 kts 168°
2026-05-08 05:46 34.85986 -118.12802 7014 ft 239 kts 168°
2026-05-08 05:46 34.84242 -118.12315 6949 ft 275 kts 168°
2026-05-08 05:46 34.82278 -118.11756 7114 ft 299 kts 167°
2026-05-08 05:47 34.80252 -118.11185 7796 ft 298 kts 168°
2026-05-08 05:47 34.78241 -118.10620 8527 ft 296 kts 168°
2026-05-08 05:47 34.76238 -118.10056 9274 ft 293 kts 168°
2026-05-08 05:47 34.74257 -118.09501 10023 ft 290 kts 168°
2026-05-08 05:48 34.72296 -118.08950 10719 ft 287 kts 168°
2026-05-08 05:48 34.70361 -118.08406 11417 ft 284 kts 167°
2026-05-08 05:48 34.68402 -118.07857 12141 ft 303 kts 167°
2026-05-08 05:48 34.66213 -118.07239 12916 ft 343 kts 166°
2026-05-08 05:49 34.63788 -118.06566 13701 ft 379 kts 167°
2026-05-08 05:49 34.61027 -118.06509 14405 ft 417 kts 187°
2026-05-08 05:49 34.58223 -118.07337 15337 ft 416 kts 197°
2026-05-08 05:49 34.55453 -118.08517 16677 ft 423 kts 201°
2026-05-08 05:50 34.52779 -118.09893 16983 ft 414 kts 205°
2026-05-08 05:50 34.50179 -118.11514 16985 ft 427 kts 209°
2026-05-08 05:50 34.47637 -118.13400 16937 ft 427 kts 213°
2026-05-08 05:50 34.45175 -118.15425 16928 ft 426 kts 214°
2026-05-08 05:51 34.42681 -118.17353 16922 ft 425 kts 210°
2026-05-08 05:51 34.40042 -118.18940 16849 ft 418 kts 204°
2026-05-08 05:51 34.37387 -118.20205 16335 ft 403 kts 200°
2026-05-08 05:51 34.34827 -118.21335 15849 ft 391 kts 200°
2026-05-08 05:52 34.32344 -118.22603 15391 ft 383 kts 204°
2026-05-08 05:52 34.29959 -118.23968 14916 ft 376 kts 204°
2026-05-08 05:52 34.27596 -118.25257 14451 ft 369 kts 202°
2026-05-08 05:52 34.25244 -118.26451 13992 ft 364 kts 202°
2026-05-08 05:53 34.22907 -118.27593 13481 ft 359 kts 198°
2026-05-08 05:53 34.20480 -118.28132 12953 ft 353 kts 183°
2026-05-08 05:53 34.18051 -118.27943 12345 ft 348 kts 169°
2026-05-08 05:53 34.15753 -118.27056 11714 ft 346 kts 155°
2026-05-08 05:54 34.13584 -118.25798 11103 ft 345 kts 154°
2026-05-08 05:54 34.11459 -118.24557 10992 ft 329 kts 154°
2026-05-08 05:54 34.09473 -118.23409 10981 ft 312 kts 154°
2026-05-08 05:54 34.07567 -118.22310 10975 ft 296 kts 154°
2026-05-08 05:55 34.05751 -118.21261 10977 ft 282 kts 154°
2026-05-08 05:55 34.04021 -118.20260 10977 ft 270 kts 154°
2026-05-08 05:55 34.02361 -118.19303 10979 ft 260 kts 154°
2026-05-08 05:55 34.00751 -118.18374 10984 ft 250 kts 154°
2026-05-08 05:56 33.99218 -118.17489 10983 ft 243 kts 154°
2026-05-08 05:56 33.97717 -118.16625 10984 ft 233 kts 154°
2026-05-08 05:56 33.96292 -118.15802 10972 ft 221 kts 154°
2026-05-08 05:56 33.94940 -118.15022 10975 ft 210 kts 154°
2026-05-08 05:57 33.93650 -118.14284 10977 ft 199 kts 154°
2026-05-08 05:57 33.92429 -118.13577 10979 ft 190 kts 154°
2026-05-08 05:57 33.91262 -118.12906 10975 ft 182 kts 154°
2026-05-08 05:57 33.90132 -118.12258 10770 ft 186 kts 154°
2026-05-08 05:58 33.88852 -118.11518 10078 ft 218 kts 155°
2026-05-08 05:58 33.87411 -118.10698 9382 ft 240 kts 155°
2026-05-08 05:58 33.85843 -118.09798 8647 ft 258 kts 155°
2026-05-08 05:58 33.84179 -118.08834 7919 ft 272 kts 155°
2026-05-08 05:59 33.82434 -118.07834 7195 ft 283 kts 155°
2026-05-08 05:59 33.80655 -118.06799 6497 ft 291 kts 155°
2026-05-08 05:59 33.78887 -118.05564 5739 ft 298 kts 142°
2026-05-08 05:59 33.77433 -118.03772 5046 ft 301 kts 126°
2026-05-08 06:00 33.76323 -118.01704 4674 ft 291 kts 122°
2026-05-08 06:00 33.75223 -117.99664 4070 ft 290 kts 122°
2026-05-08 06:00 33.74156 -117.97692 4011 ft 270 kts 122°
2026-05-08 06:00 33.73450 -117.95726 3984 ft 248 kts 97°
2026-05-08 06:01 33.73697 -117.93783 3996 ft 228 kts 62°
2026-05-08 06:01 33.74645 -117.92356 4000 ft 212 kts 43°
2026-05-08 06:01 33.75650 -117.91193 3973 ft 195 kts 41°
2026-05-08 06:01 33.76596 -117.90115 3983 ft 180 kts 41°
2026-05-08 06:02 33.77472 -117.89116 3941 ft 169 kts 41°
2026-05-08 06:02 33.78346 -117.88123 3611 ft 172 kts 41°
2026-05-08 06:02 33.79226 -117.87153 3264 ft 171 kts 41°
2026-05-08 06:02 33.80114 -117.86197 2897 ft 171 kts 41°
2026-05-08 06:03 33.81009 -117.85252 2531 ft 171 kts 41°
2026-05-08 06:03 33.81913 -117.84318 2156 ft 171 kts 41°
2026-05-08 06:03 33.82802 -117.83404 1993 ft 159 kts 41°
2026-05-08 06:03 33.83472 -117.82462 1961 ft 140 kts 68°
2026-05-08 06:04 33.83491 -117.81386 1932 ft 123 kts 106°
2026-05-08 06:04 33.83262 -117.80345 2014 ft 145 kts 110°
2026-05-08 06:04 33.82761 -117.79155 2296 ft 175 kts 128°
2026-05-08 06:04 33.81641 -117.78308 2400 ft 211 kts 165°
2026-05-08 06:05 33.80104 -117.78463 2306 ft 241 kts 199°
2026-05-08 06:05 33.78685 -117.79384 2203 ft 220 kts 214°
2026-05-08 06:05 33.77572 -117.80522 2052 ft 200 kts 221°
2026-05-08 06:05 33.76402 -117.81303 1966 ft 185 kts 203°
2026-05-08 06:06 33.75287 -117.81975 1785 ft 172 kts 207°
2026-05-08 06:06 33.74273 -117.82621 1527 ft 153 kts 207°
2026-05-08 06:06 33.73426 -117.83159 1260 ft 129 kts 207°
2026-05-08 06:06 33.72669 -117.83641 1012 ft 118 kts 208°
2026-05-08 06:07 33.71990 -117.84073 846 ft 105 kts 207°
2026-05-08 06:07 33.71336 -117.84489 777 ft 115 kts 207°
2026-05-08 06:07 33.70569 -117.84978 1219 ft 116 kts 208°
2026-05-08 06:07 33.69849 -117.85442 1606 ft 140 kts 207°
2026-05-08 06:08 33.69090 -117.85956 541 ft 121 kts 212°
2026-05-08 06:08 33.68051 -117.86752 1179 ft 186 kts 203°
2026-05-08 06:08 33.66969 -117.87340 2034 ft 154 kts 204°
2026-05-08 06:08 33.65979 -117.87506 2536 ft 140 kts 158°
2026-05-08 06:09 33.65273 -117.86574 2832 ft 184 kts 120°
2026-05-08 06:09 33.64645 -117.84861 2933 ft 250 kts 95°
2026-05-08 06:09 33.65248 -117.82802 3636 ft 286 kts 42°
2026-05-08 06:09 33.67007 -117.81834 3892 ft 263 kts
2026-05-08 06:10 33.68846 -117.81423 3405 ft 264 kts
2026-05-08 06:10 33.70665 -117.81022 2673 ft 269 kts 19°
2026-05-08 06:10 33.72240 -117.80024 2403 ft 258 kts 33°
2026-05-08 06:10 33.73823 -117.78790 1996 ft 297 kts 34°
2026-05-08 06:11 33.75521 -117.77428 1764 ft 279 kts 34°
2026-05-08 06:11 33.76983 -117.76265 2193 ft 239 kts 34°
2026-05-08 06:11 33.78340 -117.75212 2105 ft 227 kts 33°
2026-05-08 06:11 33.79627 -117.74365 2544 ft 179 kts 12°
2026-05-08 06:12 33.80712 -117.74527 2873 ft 158 kts 330°
2026-05-08 06:12 33.81383 -117.75563 2708 ft 167 kts 285°
2026-05-08 06:12 33.81215 -117.77117 2638 ft 214 kts 242°
2026-05-08 06:12 33.80216 -117.78527 2577 ft 224 kts 223°
2026-05-08 06:13 33.79009 -117.79596 2502 ft 214 kts 210°
2026-05-08 06:13 33.77720 -117.80430 2371 ft 207 kts 206°
2026-05-08 06:13 33.76481 -117.81213 2172 ft 198 kts 208°
2026-05-08 06:13 33.75307 -117.81970 1804 ft 187 kts 207°
2026-05-08 06:14 33.74209 -117.82659 1455 ft 166 kts 208°
2026-05-08 06:14 33.73253 -117.83277 1271 ft 150 kts 207°
2026-05-08 06:14 33.72387 -117.83822 983 ft 133 kts 208°
2026-05-08 06:14 33.71599 -117.84324 805 ft 124 kts 208°
2026-05-08 06:15 33.70848 -117.84802 683 ft 121 kts 207°
2026-05-08 06:15 33.70099 -117.85279 533 ft 124 kts 207°
2026-05-08 06:15 33.69325 -117.85767 357 ft 126 kts 207°
2026-05-08 06:15 33.68565 -117.86252 187 ft 121 kts 208°
2026-05-08 06:16 33.67862 -117.86703 62 ft 106 kts 207°
2026-05-08 06:16 33.67347 -117.87027 53 ft 45 kts 207°
2026-05-08 06:16 33.67225 -117.87165 54 ft 21 kts 250°
2026-05-08 06:16 33.67203 -117.87248 52 ft 24 kts 246°
2026-05-08 06:17 33.66909 -117.87449 60 ft 5 kts 206°
2026-05-08 06:17 33.66894 -117.87458 60 ft 8 kts 205°
2026-05-08 06:17 33.66847 -117.87468 61 ft 15 kts 163°
2026-05-08 06:18 33.66762 -117.87320 60 ft 17 kts 109°
2026-05-08 06:18 33.66812 -117.87198 57 ft 20 kts 40°
2026-05-08 06:18 33.66926 -117.87082 54 ft 24 kts 43°
2026-05-08 06:18 33.67061 -117.86941 54 ft 27 kts 38°
2026-05-08 06:19 33.67220 -117.86811 56 ft 28 kts 27°
2026-05-08 06:19 33.67339 -117.86699 57 ft 18 kts 40°
2026-05-08 06:19 33.67396 -117.86657 58 ft 1 kts 51°
2026-05-08 06:19 33.67397 -117.86604 55 ft 16 kts 118°
2026-05-08 06:20 33.67381 -117.86567 54 ft 0 kts 120°